Flag for Canada Weather past 2 weeks in Cumberland County, Nova Scotia, Canada

Now
38 °F

Chilly.


Feels Like: 34 °F
Forecast: 26 / 42 °F
Wind: 6 mph from Northeast

Location: Kentville

Current Time: Apr 19, 2015 at 12:51:53 PM

Latest Report: Apr 19, 2015 at 12:00 PM


Visibility: N/A

Pressure: 30.19 "Hg

Humidity: 46%

Dew point: 19 °F

Location of Cumberland CountyLocation

Historic Weather in Cumberland County — Graph

°F

Cumberland County temperature yesterday

Maximum temperature yesterday: 47 °F (at 2:00 PM)
Minimum temperature yesterday: 34 °F (at 11:00 PM)
Average temperature yesterday: 40 °F

Past Weeks' High & Low Weather Summary

 TemperatureHumidityPressure
High56 °F (Apr 17, 1:00 PM)100% (Apr 4, 3:00 PM)30.56 "Hg (Apr 4, 3:00 PM)
Low9 °F (Apr 6, 7:00 AM)24% (Apr 16, 5:00 PM)29.12 "Hg (Apr 4, 5:00 PM)
Average36 °F66%30.08 "Hg
* Reported Apr 4 11:00 AM — Apr 19 11:00 AM, Cumberland County, Weather by CustomWeather, © 2015

Note: Actual official high and low records may vary slightly from our data, if they occured in-between our weather recording intervals... More about our weather records

Advertising

Cumberland County weather history for previous 24 hours

 ConditionsComfort  
Time TempWeatherWind HumidityBarometerVisibility
11:00 AM
Sun, Apr 19
37 °FChilly.5 mph54%30.19 "HgN/A
10:00 AM35 °FChilly.6 mph62%30.19 "HgN/A
9:00 AM33 °FChilly.6 mph69%30.19 "HgN/A
8:00 AM31 °FChilly.5 mph77%30.17 "HgN/A
7:00 AM29 °FChilly.2 mph83%30.15 "HgN/A
6:00 AM29 °FChilly.2 mph84%30.12 "HgN/A
5:00 AM30 °FChilly.3 mph81%30.09 "HgN/A
4:00 AM30 °FChilly.5 mph80%30.08 "HgN/A
3:00 AM31 °FChilly.3 mph79%30.06 "HgN/A
2:00 AM33 °FChilly.5 mph73%30.04 "HgN/A
1:00 AM32 °FChilly.5 mph78%30.03 "HgN/A
12:00 AM31 °FChilly.3 mph76%30.04 "HgN/A
11:00 PM
Sat, Apr 18
34 °FChilly.7 mph69%30.01 "HgN/A
10:00 PM35 °FChilly.6 mph65%30.01 "HgN/A
9:00 PM37 °FChilly.6 mph61%30.02 "HgN/A
8:00 PM38 °FChilly.6 mph57%29.98 "HgN/A
7:00 PM39 °FChilly.8 mph56%29.96 "HgN/A
6:00 PM43 °FQuite cool.9 mph52%29.94 "HgN/A
5:00 PM45 °FCool.9 mph48%29.93 "HgN/A
4:00 PM47 °FCool.7 mph42%29.93 "HgN/A
3:00 PM47 °FCool.6 mph46%29.94 "HgN/A
2:00 PM47 °FCool.3 mph45%29.95 "HgN/A
1:00 PM46 °FCool.3 mph48%29.94 "HgN/A
12:00 PM45 °FQuite cool.5 mph55%29.93 "HgN/A
Weather by CustomWeather, © 2015

See weather overviewHow to use our weather pages